This is the latest recevied weather packets stored in our database for station/object KD8BMB. If no packets are shown the sender has not sent any weather packets the latest 10 day(s).
| Time | Temp. | Humidity | Pressure | Rain* | Wind** | Luminosity | Snow |
|---|---|---|---|---|---|---|---|
| 1778003260 | 12.22° C | 72% | 1006 hPa | 0 mm | - | 235 W/m² | - |
| 1778002957 | 12.22° C | 72% | 1006.1 hPa | 0 mm | - | 229 W/m² | - |
| 1778002653 | 12.22° C | 72% | 1005.8 hPa | 0 mm | - | 233 W/m² | - |
| 1778002350 | 12.22° C | 73% | 1006.1 hPa | 0 mm | - | 217 W/m² | - |
| 1778002047 | 12.22° C | 74% | 1006.3 hPa | 0 mm | - | 458 W/m² | - |
| 1778001744 | 12.22° C | 73% | 1006.3 hPa | 0 mm | - | 230 W/m² | - |
| 1778001444 | 12.22° C | 74% | 1006 hPa | 0 mm | - | 173 W/m² | - |
| 1778001141 | 11.67° C | 73% | 1006.2 hPa | 0 mm | - | 198 W/m² | - |
| 1778000838 | 12.22° C | 73% | 1006.1 hPa | 0 mm | - | 319 W/m² | - |
| 1778000535 | 11.67° C | 73% | 1006 hPa | 0 mm | - | 354 W/m² | - |
| 1778000230 | 12.22° C | 73% | 1006 hPa | 0 mm | - | 346 W/m² | - |
| 1777999926 | 11.67° C | 74% | 1006 hPa | 0 mm | - | 399 W/m² | - |
| 1777999622 | 12.22° C | 74% | 1006.3 hPa | 0 mm | - | 323 W/m² | - |
| 1777999319 | 11.67° C | 75% | 1006.4 hPa | 0 mm | - | 345 W/m² | - |
| 1777999017 | 11.11° C | 77% | 1006.4 hPa | 0 mm | - | 349 W/m² | - |
| 1777998715 | 11.11° C | 78% | 1006.5 hPa | 0 mm | - | 367 W/m² | - |
| 1777998413 | 11.67° C | 77% | 1006.1 hPa | 0 mm | - | 327 W/m² | - |
| 1777998110 | 11.11° C | 80% | 1006.4 hPa | 0 mm | - | 338 W/m² | - |
| 1777997807 | 10.56° C | 81% | 1006.4 hPa | 0 mm | - | 281 W/m² | - |
| 1777997504 | 10.56° C | 82% | 1006.3 hPa | 0 mm | - | 224 W/m² | - |
| 1777997202 | 10.56° C | 80% | 1006.4 hPa | 0 mm | - | 218 W/m² | - |
| 1777996899 | 10.56° C | 81% | 1006.3 hPa | 0 mm | - | 201 W/m² | - |
| 1777996595 | 10° C | 81% | 1006.4 hPa | 0 mm | - | 151 W/m² | - |
| 1777996291 | 10.56° C | 81% | 1006.4 hPa | 0 mm | - | 155 W/m² | - |
| 1777995988 | 10° C | 81% | 1006.6 hPa | 0 mm | - | 232 W/m² | - |
* Rain latest hour (hover to see other rain measurements)
** Current wind speed in m/s (hover to see current wind gust speed)